Location: Tierz
(42.1336°N, 0.3549°W)
Time: 12:10:25
(UTC+00:00)

Radarsat Rocket - Pass Details

Date: 29 October 2020
Orbit: 933 x 1492 km, 100.6° (Epoch: 29 November)

Event Time Altitude Azimuth Distance (km) Brightness Sun altitude
Rises 17:18:23 0° 166° (SSE) 3,754 7.1 -4.4°
Reaches altitude 10° 17:20:56 10° 168° (SSE) 2,752 6.4 -4.8°
Maximum altitude 17:26:59 76° 254° (WSW) 978 4.3 -5.9°
Drops below altitude 10° 17:32:49 10° 341° (NNW) 2,651 6.4 -7.0°
Sets 17:35:14 0° 343° (NNW) 3,607 7.1 -7.4°
